This is the latest recevied weather packets stored in our database for station/object CA2RRL-10. If no packets are shown the sender has not sent any weather packets the latest 10 day(s).
| Time | Temp. | Humidity | Pressure | Rain* | Wind** | Luminosity | Snow |
|---|---|---|---|---|---|---|---|
| 1777369663 | 14.44° C | 33% | 1032 hPa | - | - | - | - |
| 1777368763 | 15° C | 33% | 1031.9 hPa | - | - | - | - |
| 1777367863 | 15° C | 33% | 1031.8 hPa | - | - | - | - |
| 1777366963 | 15° C | 33% | 1032 hPa | - | - | - | - |
| 1777366063 | 15° C | 33% | 1032 hPa | - | - | - | - |
| 1777365162 | 15° C | 33% | 1032 hPa | - | - | - | - |
| 1777364262 | 15.56° C | 34% | 1031.9 hPa | - | - | - | - |
| 1777363362 | 16.11° C | 34% | 1032.2 hPa | - | - | - | - |
| 1777362462 | 15° C | 35% | 1032.1 hPa | - | - | - | - |
| 1777361562 | 15° C | 33% | 1032.6 hPa | - | - | - | - |
| 1777360662 | 15.56° C | 33% | 1032.8 hPa | - | - | - | - |
| 1777359762 | 15° C | 32% | 1032.9 hPa | - | - | - | - |
| 1777358862 | 16.11° C | 30% | 1032.9 hPa | - | - | - | - |
| 1777357962 | 16.11° C | 32% | 1033.1 hPa | - | - | - | - |
| 1777357062 | 15° C | 34% | 1033.6 hPa | - | - | - | - |
| 1777356162 | 15° C | 33% | 1034.1 hPa | - | - | - | - |
| 1777355262 | 15° C | 33% | 1034.1 hPa | - | - | - | - |
| 1777354362 | 15° C | 32% | 1033.4 hPa | - | - | - | - |
| 1777353461 | 15.56° C | 32% | 1033.3 hPa | - | - | - | - |
| 1777352561 | 15° C | 31% | 1032.9 hPa | - | - | - | - |
| 1777351661 | 15.56° C | 32% | 1032.7 hPa | - | - | - | - |
| 1777350761 | 15.56° C | 30% | 1032.6 hPa | - | - | - | - |
| 1777349861 | 16.11° C | 29% | 1032.4 hPa | - | - | - | - |
| 1777348961 | 16.11° C | 29% | 1032.3 hPa | - | - | - | - |
| 1777348061 | 16.11° C | 28% | 1032.4 hPa | - | - | - | - |
* Rain since midnight (hover to see other rain measurements)
** Current wind speed in m/s (hover to see current wind gust speed)